Flag for Norway Weather past 2 weeks in Tønsberg, Norway

45 °F

Partly cloudy.

Feels Like: 38 °F
Forecast: 38 / 49 °F
Wind: 13 mph from West

Location: Oseberg

Current Time: Nov 26, 2015 at 6:20:42 AM

Latest Report: Nov 26, 2015 at 5:20 AM

Visibility: N/A

Pressure: 29.74 "Hg

Humidity: 57%

Dew point: 30 °F

Location of TønsbergLocation

Historic Weather in Tønsberg — Graph


Tønsberg temperature yesterday

Maximum temperature yesterday: 45 °F (at 2:50 AM)
Minimum temperature yesterday: 39 °F (at 11:20 AM)
Average temperature yesterday: 42 °F

Past Weeks' High & Low Weather Summary

High52 °F (Nov 11, 7:50 AM)100% (Nov 16, 3:50 AM)30.01 "Hg (Nov 16, 3:50 AM)
Low34 °F (Nov 21, 6:50 AM)42% (Nov 20, 3:50 AM)28.85 "Hg (Nov 17, 7:50 AM)
Average45 °F75%29.45 "Hg
* Reported Nov 11 4:50 AM — Nov 26 4:50 AM, Tønsberg, Weather by CustomWeather, © 2015

Note: Actual official high and low records may vary slightly from our data, if they occured in-between our weather recording intervals... More about our weather records


Tønsberg weather history for previous 24 hours

Time TempWeatherWind HumidityBarometerVisibility
4:50 AM
Thu, Nov 26
43 °FPassing clouds.7 mph66%29.74 "HgN/A
3:50 AM43 °FSprinkles. Partly cloudy.9 mph66%29.74 "HgN/A
2:50 AM43 °FPassing clouds.14 mph61%29.74 "HgN/A
1:50 AM43 °FPassing clouds.21 mph61%29.74 "HgN/A
12:50 AM43 °FPassing clouds.22 mph57%29.74 "HgN/A
11:50 PM
Wed, Nov 25
41 °FSprinkles. Passing clouds.21 mph70%29.71 "HgN/A
10:50 PM41 °FPassing clouds.26 mph70%29.71 "HgN/A
9:50 PM41 °FPassing clouds.26 mph70%29.71 "HgN/A
8:50 PM41 °FSprinkles. Passing clouds.30 mph76%29.68 "HgN/A
7:50 PM43 °FPassing clouds.30 mph61%29.65 "HgN/A
7:20 PM43 °FPassing clouds.31 mph61%29.62 "HgN/A
6:50 PM43 °FPassing clouds.32 mph66%29.62 "HgN/A
6:20 PM41 °FPassing clouds.33 mph70%29.62 "HgN/A
5:50 PM39 °FSprinkles. Passing clouds.29 mph81%29.59 "HgN/A
5:20 PM41 °FScattered showers. Passing clouds.30 mph76%29.59 "HgN/A
4:50 PM41 °FScattered showers. Passing clouds.33 mph70%29.59 "HgN/A
4:20 PM41 °FScattered showers. Passing clouds.30 mph70%29.59 "HgN/A
3:50 PM41 °FScattered showers. Passing clouds.25 mph70%29.56 "HgN/A
3:20 PM41 °FScattered showers. Scattered clouds.28 mph76%29.56 "HgN/A
2:50 PM43 °FScattered showers. Scattered clouds.31 mph71%29.53 "HgN/A
2:20 PM41 °FSprinkles. Scattered clouds.36 mph81%29.53 "HgN/A
1:50 PM43 °FScattered showers. Passing clouds.32 mph66%29.53 "HgN/A
12:50 PM43 °FScattered showers. Scattered clouds.35 mph66%29.50 "HgN/A
12:20 PM39 °FScattered showers. Scattered clouds.29 mph81%29.50 "HgN/A
11:50 AM43 °FScattered showers. Scattered clouds.33 mph66%29.50 "HgN/A
11:20 AM39 °FSprinkles. Broken clouds.33 mph87%29.47 "Hg5 mi
10:50 AM43 °FScattered showers. Scattered clouds.28 mph71%29.47 "HgN/A
10:20 AM43 °FScattered showers. Scattered clouds.35 mph71%29.45 "HgN/A
9:50 AM43 °FScattered showers. Scattered clouds.24 mph76%29.45 "HgN/A
9:20 AM43 °FScattered showers. Scattered clouds.30 mph71%29.45 "HgN/A
8:50 AM41 °FScattered showers. Scattered clouds.25 mph81%29.45 "HgN/A
7:50 AM43 °FSprinkles. Passing clouds.30 mph71%29.42 "HgN/A
7:20 AM41 °FPassing clouds.26 mph76%29.42 "HgN/A
6:50 AM43 °FPartly cloudy.33 mph66%29.39 "HgN/A
6:20 AM43 °FPassing clouds.31 mph76%29.39 "HgN/A
Weather by CustomWeather, © 2015

See weather overviewHow to use our weather pages